OBJECT R, 59066

Orbit data source: Space-Track

You're viewing an Uncataloged Satellite

Recently launched and/or uncataloged satellites may have evolving metadata. Metadata may include but not limited to: Owner, Maufacturer, Bus, Motor, and Mission.

OBJECT R, 59066 is a satellite in LEO that was launched on Thu, 29 Feb 2024 UTC via a SOYUZ-2-1B launch vehicle from the Vostochny Cosmodrome (VOSTO). Unknown objects in Earth's orbit typically refer to objects detected orbiting the Earth but have not yet been identified or cataloged. These objects could be anything from previously untracked satellites, spent rocket stages, debris from satellite collisions, or even natural meteoroids temporarily captured by Earth's gravity.

Loading next visibility...
Identifier
59066, 2024-039R
Orbit
LEO
Country
Flag of TBDTBD
Related business
Manufacturer
Sputniks
Mission
Operational Commercial Communications
Bus & Motor
CUBESAT 3U?, Unknown motor
Mass
3 kg wet, 3 kg dry
Launch date (UTC)
2024-02-29 (2 years ago)
Launch vehicle
SOYUZ-2-1B
Launch site
Vostochny Cosmodrome (VOSTO)
Object type
Unknown
Shape & HBR
Box, 0.1 m
Radar Cross Section
0.035 m², Small (<0.1 m²)

Expand to show TLE details & history
Last TLE update: 7 hours ago

TLE from 7 hours ago
0 OBJECT R
1 59066U 24039R   26124.21918392  .00005605  00000-0  43596-3 0  9990
2 59066  95.3918 204.8848 0147421 121.4818 240.0911 14.93184678118166
Epoch: 2026-05-04T05:15Z
TLE epoch observation values (Epoch: 2026-05-04T05:15:37.490Z)
Latitude
-0.00004°
Longitude
-96.13293°
Altitude
643.461 km
Speed
7.508 km/s
True Right ascension
13h 39m 32s
True Declination
0° 00' 00"
Sunlit
Object was in full shadow at epoch
Visualization orbit readout
Latitude
Unknown
Longitude
Unknown
Altitude
Unknown
Speed
Unknown
Apparent Right ascension
Unknown
Apparent Declination
Unknown
Sunlit
N/A
Visualization observer readout
Local Sidereal Time
19:40:49
Azimuth
Unknown
Elevation
Unknown
Doppler factor
Unknown
Orbital elements
Apogee altitude
687.59 km
Perigee altitude
482.29 km
Semi-major axis
6,963.077 km
Eccentricity
0.01474
Inclination
95.3918°
RAAN
204.8848°
Arg. of periapsis
121.4818°
True anomaly
238.64026°
Mean anomaly
240.0911°
Eccentric anomaly
239.36433°
Mean motion
3.73544 °/min
Orbital period
96.37 mins
BSTAR
0.00043596
Loading maneuver chart data...
Computing Atmospheric mass density...
Loading historical data...
Loading historical data...
Loading historical data...
Loading historical data...
Loading historical data...
Loading historical data...
Loading historical data...

Documentation

Showing up to 5 results
|